Home > Time Zones > World Clock > Weather > U.S.A. > Bend > Past weeks

Flag for U.S.A. Weather past 2 weeks in Bend, Oregon, U.S.A.

Now
51 °F

Clear.


Feels Like: 50 °F
Forecast: 39 / 60 °F
Wind: 5 mph from West

Location: Roberts Field Airport


UV Index: 0 (Low)

Visibility: 10 mi


Pressure: 30.10 "Hg

Humidity: 44%

Dew point: 30 °F

Location of BendLocation

Historic Weather in Bend

°F

Bend temperature yesterday

Maximum temperature yesterday: 63 °F (at 11:56 AM)
Minimum temperature yesterday: 30 °F (at 3:56 AM)
Average temperature yesterday: 46 °F

Past Weeks' High & Low Weather Summary

 TemperatureHumidityPressure
High75 °F (Apr 7, 3:56 PM)93% (Apr 7, 4:56 AM)30.32 "Hg (Apr 7, 4:56 AM)
Low25 °F (Apr 14, 6:56 AM)13% (Apr 14, 1:56 PM)29.81 "Hg (Apr 19, 9:56 AM)
Average48 °F51%30.08 "Hg
* Reported Apr 5 9:56 PM — Apr 20 9:56 PM, Bend, Weather by CustomWeather, © 2014

Note: Actual official high and low records may vary slightly from our data, if they occured in-between our weather recording intervals... More about our weather records

Advertising

Historic Weather Conditions — Data for Previous 24 hours

 ConditionsComfort  
Time TempWeatherWind HumidityBarometerVisibility
9:56 PM
Apr 20
51 °FClear.7 mph44%30.11 "Hg10 mi
8:56 PM52 °FClear.No wind40%30.13 "Hg10 mi
7:56 PM59 °FSunny.7 mph31%30.11 "Hg10 mi
6:56 PM64 °FSunny.5 mph23%30.12 "Hg10 mi
5:56 PM67 °FSunny.6 mph20%30.13 "Hg10 mi
4:56 PM65 °FSunny.No wind21%30.14 "Hg10 mi
3:56 PM65 °FSunny.5 mph21%30.16 "Hg10 mi
2:56 PM64 °FSunny.6 mph21%30.18 "Hg10 mi
1:56 PM63 °FSunny.7 mph19%30.19 "Hg10 mi
12:56 PM61 °FSunny.6 mph20%30.21 "Hg10 mi
11:56 AM56 °FSunny.5 mph26%30.25 "Hg10 mi
10:56 AM53 °FSunny.9 mph32%30.27 "Hg10 mi
9:56 AM48 °FSunny.5 mph48%30.29 "Hg10 mi
8:56 AM42 °FSunny.3 mph60%30.30 "Hg10 mi
7:56 AM35 °FSunny.7 mph75%30.30 "Hg10 mi
6:56 AM30 °FClear.5 mph82%30.29 "Hg10 mi
5:56 AM27 °FClear.6 mph89%30.28 "Hg10 mi
4:56 AM28 °FClear.8 mph89%30.27 "Hg10 mi
3:56 AM28 °FClear.6 mph85%30.27 "Hg10 mi
2:56 AM28 °FPassing clouds.6 mph89%30.27 "Hg10 mi
1:56 AM27 °FClear.3 mph92%30.25 "Hg10 mi
12:56 AM28 °FClear.No wind89%30.23 "Hg10 mi
11:56 PM
Apr 19
30 °FClear.3 mph85%30.22 "Hg10 mi
Weather by CustomWeather, © 2014

See weather overview